TimeCDT,TemperatureF,Dew PointF,Humidity,Sea Level PressureIn,VisibilityMPH,Wind Direction,Wind SpeedMPH,Gust SpeedMPH,PrecipitationIn,Events,Conditions,WindDirDegrees,DateUTC
12:15 AM,53.4,38.8,58,30.05,10.0,NNW,17.3,27.6,N/A,,Clear,340,2012-10-04 05:15:00
12:35 AM,53.2,38.5,57,30.07,10.0,NNW,18.4,32.2,N/A,,Clear,340,2012-10-04 05:35:00
12:55 AM,52.3,38.8,60,30.07,10.0,NNW,20.7,27.6,N/A,Thunderstorm,Thunderstorm,330,2012-10-04 05:55:00
1:15 AM,50.9,39.2,64,30.08,10.0,NNW,24.2,32.2,N/A,,Mostly Cloudy,340,2012-10-04 06:15:00
1:35 AM,50.5,38.8,64,30.11,10.0,NNW,24.2,32.2,N/A,,Scattered Clouds,330,2012-10-04 06:35:00
1:55 AM,49.5,38.5,66,30.12,10.0,NNW,17.3,31.1,N/A,,Mostly Cloudy,340,2012-10-04 06:55:00
2:15 AM,47.7,39.7,74,30.09,10.0,North,25.3,35.7,N/A,Rain,Light Rain,350,2012-10-04 07:15:00
2:35 AM,46.8,39.9,77,30.11,10.0,NNW,21.9,32.2,N/A,Thunderstorm,Scattered Clouds,340,2012-10-04 07:35:00
2:55 AM,46.4,39.7,78,30.12,10.0,NNW,11.5,27.6,N/A,,Clear,330,2012-10-04 07:55:00
3:15 AM,46.0,38.5,75,30.11,10.0,NNW,17.3,31.1,N/A,,Clear,340,2012-10-04 08:15:00
3:35 AM,46.0,38.3,74,30.14,10.0,NNW,10.4,24.2,N/A,,Clear,330,2012-10-04 08:35:00
3:55 AM,45.9,36.7,70,30.15,10.0,NNW,18.4,27.6,N/A,Thunderstorm,Scattered Clouds,340,2012-10-04 08:55:00
4:15 AM,45.5,36.0,69,30.15,10.0,NNW,17.3,24.2,N/A,Thunderstorm,Thunderstorm,330,2012-10-04 09:15:00
4:35 AM,45.1,35.6,69,30.15,10.0,NNW,16.1,-,N/A,Thunderstorm,Overcast,340,2012-10-04 09:35:00
4:55 AM,44.6,35.4,70,30.16,10.0,NNW,10.4,19.6,N/A,,Scattered Clouds,330,2012-10-04 09:55:00
5:15 AM,44.1,34.7,70,30.19,10.0,NNW,19.6,26.5,N/A,,Scattered Clouds,330,2012-10-04 10:15:00
5:35 AM,43.2,34.2,71,30.18,10.0,NNW,18.4,24.2,N/A,,Scattered Clouds,340,2012-10-04 10:35:00
5:55 AM,42.8,34.3,72,30.18,10.0,NNW,13.8,23.0,N/A,,Clear,330,2012-10-04 10:55:00
6:15 AM,42.4,34.2,72,30.20,10.0,NNW,15.0,25.3,N/A,,Scattered Clouds,330,2012-10-04 11:15:00
6:35 AM,41.9,33.1,71,30.19,10.0,NNW,17.3,26.5,N/A,Thunderstorm,Scattered Clouds,340,2012-10-04 11:35:00
6:55 AM,41.5,33.3,72,30.20,10.0,NNW,16.1,21.9,N/A,,Clear,330,2012-10-04 11:55:00
7:15 AM,41.4,33.3,73,30.22,10.0,NNW,12.7,21.9,N/A,,Scattered Clouds,330,2012-10-04 12:15:00
7:35 AM,41.2,33.3,73,30.23,10.0,NNW,10.4,-,N/A,,Overcast,330,2012-10-04 12:35:00
7:55 AM,41.7,32.9,71,30.24,10.0,NNW,12.7,19.6,N/A,,Overcast,340,2012-10-04 12:55:00
8:15 AM,42.3,32.9,69,30.25,10.0,NNW,12.7,19.6,N/A,,Overcast,340,2012-10-04 13:15:00
8:35 AM,42.4,32.4,68,30.25,10.0,North,13.8,-,N/A,,Overcast,350,2012-10-04 13:35:00
8:55 AM,43.2,32.2,65,30.27,10.0,NNW,16.1,21.9,N/A,,Scattered Clouds,340,2012-10-04 13:55:00
9:15 AM,43.7,32.0,63,30.28,10.0,NNW,17.3,27.6,N/A,,Scattered Clouds,340,2012-10-04 14:15:00
9:35 AM,44.6,32.0,61,30.29,10.0,NNW,16.1,27.6,N/A,,Mostly Cloudy,340,2012-10-04 14:35:00
9:55 AM,44.8,31.8,60,30.29,10.0,NNW,15.0,25.3,N/A,,Scattered Clouds,340,2012-10-04 14:55:00
10:15 AM,45.5,30.0,55,30.29,10.0,NNW,23.0,31.1,N/A,,Clear,340,2012-10-04 15:15:00
10:35 AM,47.8,30.6,51,30.30,10.0,North,19.6,28.8,N/A,,Clear,350,2012-10-04 15:35:00
10:55 AM,48.6,30.4,50,30.30,10.0,North,19.6,25.3,N/A,,Clear,350,2012-10-04 15:55:00
11:15 AM,48.9,30.2,48,30.30,10.0,North,19.6,26.5,N/A,,Clear,350,2012-10-04 16:15:00
11:35 AM,49.6,29.8,47,30.31,10.0,North,17.3,26.5,N/A,,Clear,350,2012-10-04 16:35:00
11:55 AM,50.9,29.7,44,30.31,10.0,NNW,17.3,26.5,N/A,,Clear,340,2012-10-04 16:55:00
12:15 PM,51.3,29.7,44,30.31,10.0,NNW,12.7,25.3,N/A,,Clear,340,2012-10-04 17:15:00
12:35 PM,52.0,29.3,42,30.31,10.0,NNW,13.8,24.2,N/A,,Clear,340,2012-10-04 17:35:00
12:55 PM,52.7,29.5,41,30.31,10.0,NNW,13.8,24.2,N/A,,Clear,340,2012-10-04 17:55:00
1:35 PM,53.8,29.3,39,30.30,10.0,North,16.1,23.0,N/A,,Clear,360,2012-10-04 18:35:00
1:55 PM,54.1,28.8,38,30.30,10.0,North,15.0,25.3,N/A,,Clear,350,2012-10-04 18:55:00
2:15 PM,53.8,28.8,38,30.29,10.0,North,17.3,23.0,N/A,,Clear,350,2012-10-04 19:15:00
2:35 PM,55.0,28.8,37,30.28,10.0,North,18.4,23.0,N/A,,Clear,350,2012-10-04 19:35:00
2:55 PM,55.0,28.0,35,30.28,10.0,NNW,12.7,21.9,N/A,,Clear,340,2012-10-04 19:55:00
3:15 PM,55.8,27.7,34,30.27,10.0,North,13.8,21.9,N/A,,Clear,350,2012-10-04 20:15:00
3:35 PM,55.6,27.7,34,30.27,10.0,NNE,5.8,18.4,N/A,,Clear,20,2012-10-04 20:35:00
3:55 PM,55.6,27.7,34,30.27,10.0,NNW,12.7,23.0,N/A,,Clear,330,2012-10-04 20:55:00
4:15 PM,56.5,27.9,33,30.26,10.0,North,15.0,-,N/A,,Clear,350,2012-10-04 21:15:00
4:35 PM,55.8,27.5,34,30.26,10.0,North,11.5,23.0,N/A,,Clear,10,2012-10-04 21:35:00
4:55 PM,55.6,27.5,34,30.26,10.0,North,15.0,-,N/A,,Clear,360,2012-10-04 21:55:00
5:15 PM,55.6,27.9,35,30.26,10.0,North,10.4,19.6,N/A,,Clear,360,2012-10-04 22:15:00
5:55 PM,54.3,27.9,36,30.27,10.0,North,12.7,-,N/A,,Clear,10,2012-10-04 22:55:00
6:15 PM,52.9,28.2,39,30.27,10.0,North,12.7,-,N/A,,Clear,10,2012-10-04 23:15:00
6:35 PM,51.8,27.5,39,30.28,10.0,NNE,13.8,-,N/A,,Clear,20,2012-10-04 23:35:00
6:55 PM,51.1,27.7,40,30.27,10.0,North,10.4,-,N/A,,Clear,10,2012-10-04 23:55:00
7:15 PM,50.0,28.2,43,30.28,10.0,NNE,8.1,-,N/A,,Clear,20,2012-10-05 00:15:00
7:35 PM,48.6,28.4,46,30.28,10.0,NNE,6.9,-,N/A,,Clear,20,2012-10-05 00:35:00
7:55 PM,47.7,28.4,47,30.29,10.0,NNE,4.6,-,N/A,,Clear,20,2012-10-05 00:55:00
8:15 PM,47.3,28.6,48,30.30,10.0,North,5.8,-,N/A,,Clear,10,2012-10-05 01:15:00
8:35 PM,46.0,28.8,51,30.31,10.0,NNE,4.6,-,N/A,,Clear,20,2012-10-05 01:35:00
8:55 PM,45.5,29.3,53,30.31,10.0,NNE,5.8,-,N/A,,Clear,20,2012-10-05 01:55:00
9:15 PM,45.9,29.1,52,30.32,10.0,North,5.8,-,N/A,,Clear,10,2012-10-05 02:15:00
9:35 PM,45.9,29.7,53,30.32,10.0,North,5.8,-,N/A,,Scattered Clouds,10,2012-10-05 02:35:00
9:55 PM,45.7,30.0,54,30.34,10.0,North,4.6,-,N/A,,Overcast,10,2012-10-05 02:55:00
10:15 PM,44.8,29.7,55,30.33,10.0,North,6.9,-,N/A,,Scattered Clouds,360,2012-10-05 03:15:00
10:35 PM,43.9,29.3,57,30.34,10.0,North,8.1,-,N/A,,Clear,360,2012-10-05 03:35:00
10:55 PM,41.4,28.6,60,30.34,10.0,North,5.8,-,N/A,,Clear,360,2012-10-05 03:55:00
11:15 PM,39.6,28.9,66,30.33,10.0,North,6.9,-,N/A,,Clear,360,2012-10-05 04:15:00
11:35 PM,40.3,28.6,63,30.33,10.0,North,5.8,-,N/A,,Clear,350,2012-10-05 04:35:00
11:55 PM,40.6,28.9,63,30.32,10.0,North,8.1,-,N/A,,Clear,360,2012-10-05 04:55:00